HORIZONS 3E

Last updated on Jan. 28, 2020, 4:41 a.m. UTC

1 43633U 18074B   20027.81520918 -.00000034  00000-0  00000-0 0  9992
2 43633   0.0075 268.0207 0000289 329.2799 351.6954  1.00272867  4974
UTC
Height (km)
Latitude
Longitude
Inclination
Orbital Period
UTC large
Height (km)
Speed (km/s)
/
Latitude / Longitude
Inclination (degrees)
Orbital Period (minutes)
Azimuth
Elevation
Range (km)
Doppler Factor
iOS Compass Heading
iOS Angle

Next 30 passes for location: Hong Kong

Rise time Rise Azimuth (degrees) Set time Set Azimuth (degrees) Duration Max altitude (degrees)

No matching passes for this satellites